Location: Prague
(50.0830°N, 14.4670°E)
Time: 20:17:40
(UTC+02:00)

X-37B - Pass Details

Date: 03 October 2021
Orbit: 385 x 389 km, 45.0° (Epoch: 13 October)

Event Time Altitude Azimuth Distance (km) Brightness Sun altitude
Exits shadow 05:57:24 11° 217° (SW) 1,328 2.9 -11.7°
Maximum altitude 05:57:49 12° 209° (SSW) 1,316 2.9 -11.6°
Drops below altitude 10° 05:58:59 10° 187° (S) 1,408 3.3 -11.4°
Sets 06:02:08 0° 153° (SSE) 2,260 4.7 -10.9°
